Terminal Aerodrome Forecast
Issued by NWS Pittsburgh, PA

Current Version | Previous Version | Graphics & Text | Print | Product List | Glossary On
Versions: 1 2 3 4 5 6 7 8 9 10 11 12 13 14 15 16 17 18 19 20 21 22 23 24 25 26 27 28 29
828
FTUS41 KPBZ 090523
TAFPIT
TAF
KPIT 090523Z 0906/1012 21004KT P6SM SCT025 OVC035
     FM090900 21003KT P6SM BKN015 OVC025
     FM091200 29005KT 5SM -SHSN OVC010
      TEMPO 0913/0916 1SM -SHSN BKN008
     FM092200 30008KT P6SM BKN025=

USA.gov is the U.S. government's official web portal to all federal, state and local government web resources and services.